Temp
21 22 21 21 21 21 21 21 21 21 21 21 21 21 21 20 20 21 21 20 20 20 20 20 20 20 20 20 20 20 20 20 20 20 20 21 21 20 20 20 20 20 20
21 21 21 21 21 21 21 21 21 21 21 21 21 20 21 21 21 21 21 21 20 21 21 20 20 20 20 20 20 20 20 20 20 20 20 20 21 20 20 20 20 20 20
21 21 21 21 21 21 21 21 21 21 21 22 21 21 21 21 21 21 21 21 21 21 21 20 20 20 20 20 20 20 20 20 20 20 21 21 21 21 20 20 20 20 20
21 21 21 21 21 21 21 21 21 21 21 21 22 22 21 22 21 21 21 21 21 21 21 21 21 20 20 21 21 21 21 20 20 21 21 21 21 20 20 20 20 20 20
21 21 21 21 21 21 21 21 21 21 21 21 21 22 21 21 21 21 21 21 21 21 21 21 21 21 21 21 21 21 21 21 20 21 21 21 21 20 20 20 20 20 20
21 21 21 21 21 21 21 21 21 21 21 22 22 21 21 21 21 21 21 21 21 21 21 21 21 21 21 21 22 22 22 22 22 21 21 21 20 20 20 20 20 20 20
21 21 21 21 21 21 21 21 21 21 21 22 21 21 21 21 21 21 21 21 21 21 21 21 21 22 22 22 22 22 22 22 22 21 21 20 20 20 20 20 20 20 20
21 21 21 21 21 21 21 21 21 21 21 21 21 21 21 21 21 21 21 21 21 21 22 22 22 22 22 22 22 22 22 22 21 21 21 20 20 20 20 20 20 20 19
21 21 21 21 21 21 21 21 21 21 21 21 21 21 21 21 21 21 21 21 21 21 22 23 23 22 22 22 22 22 22 22 22 21 21 20 20 20 20 20 20 20 19
21 22 21 21 21 21 21 21 21 21 21 21 21 22 21 21 21 22 22 22 22 22 22 23 23 23 23 22 22 22 22 22 21 21 20 20 20 20 20 20 20 20 20
21 21 21 21 21 21 21 21 21 21 21 21 21 22 23 23 22 22 22 23 23 23 23 23 23 23 23 23 22 22 22 22 22 21 20 20 20 20 20 19 19 20 20
20 21 21 21 22 22 21 21 22 21 22 22 23 23 23 23 23 22 22 23 23 23 24 23 23 23 23 23 23 23 22 22 22 21 21 20 20 20 20 20 20 20 19
20 20 21 21 22 22 22 22 22 22 23 23 23 23 23 23 23 23 23 23 24 24 24 24 24 24 24 24 23 23 23 22 22 21 21 20 20 20 20 19 19 19 20
20 21 21 22 22 23 23 23 23 23 23 23 23 23 23 23 24 24 24 24 24 24 24 24 24 24 24 24 24 23 23 23 22 22 21 20 20 19 19 19 19 19 19
20 21 22 22 23 24 24 24 24 23 23 23 24 24 23 24 24 24 24 24 24 24 24 24 24 24 25 25 24 24 23 23 23 22 21 20 20 20 19 19 19 20 19
21 21 22 23 24 24 25 24 24 24 24 23 23 24 24 24 24 24 24 24 24 24 24 24 24 24 26 25 25 24 24 23 23 22 21 20 21 20 20 19 19 19 19
22 22 23 24 24 24 25 25 24 24 24 24 24 24 24 24 25 25 25 25 24 24 24 24 24 24 25 25 25 25 24 23 23 23 22 21 20 20 20 19 20 20 19
23 22 23 24 24 25 25 25 25 24 24 24 25 25 24 24 25 25 25 24 24 25 24 25 24 24 24 24 25 24 24 24 23 23 22 22 21 21 21 20 20 20 20
23 24 24 23 24 25 25 25 25 25 25 26 25 25 24 24 25 25 25 24 24 24 25 25 25 25 26 25 25 24 24 24 24 23 23 23 22 22 21 21 21 21 20
24 24 24 24 24 25 25 25 24 25 25 26 26 25 25 24 25 25 25 25 24 25 25 24 25 25 25 25 25 24 24 23 23 23 24 23 23 22 22 22 21 21 21
24 24 24 24 24 24 24 24 24 25 25 25 25 25 25 24 24 25 25 25 24 25 24 25 25 25 25 25 24 24 23 23 23 23 23 24 23 23 22 22 22 22 21
25 25 24 25 25 24 24 24 25 26 25 25 25 25 25 24 24 25 25 25 25 25 25 24 25 25 25 25 24 23 19 23 23 23 23 23 23 23 23 23 22 22 22
24 25 24 24 24 25 25 24 24 25 26 25 25 25 25 25 25 25 25 25 25 25 25 24 24 25 25 24 25 25 19 20 21 23 23 23 23 23 23 23 22 22 22
24 25 25 24 24 24 24 24 24 25 25 26 26 25 26 25 25 25 25 25 25 25 25 24 24 24 25 25 24 24 25 25 19 20 23 23 23 23 23 23 23 23 23
26 24 25 24 24 24 24 24 25 24 25 26 26 25 25 26 25 25 25 25 25 24 24 24 24 24 25 25 25 25 24 24 24 21 19 22 23 23 24 23 23 23 23
26 24 24 23 23 23 24 24 25 25 25 25 25 25 25 25 25 25 25 25 25 25 24 24 24 24 24 25 26 25 25 24 23 23 19 21 22 24 24 24 24 23 23
Height
806 808 811 812 814 816 817 817 818 819 820 821 822 823 824 826 827 827 828 829 830 831 832 832 832 832 833 833 833 833 833 834 835 836 836 837 838 838 839 839 841 841 841
805 809 812 814 816 818 819 820 821 822 823 823 825 826 826 827 828 829 830 831 832 833 834 834 834 835 836 836 836 836 836 837 838 839 840 841 840 841 842 843 843 843 844
806 810 813 815 817 819 820 822 823 824 824 826 827 828 828 829 829 831 832 834 834 835 835 836 837 837 838 838 838 839 839 839 840 842 843 842 843 844 844 845 845 846 847
808 811 814 816 819 820 822 823 825 826 827 828 829 829 830 830 831 833 834 835 836 836 837 838 839 840 840 841 841 841 841 842 843 844 844 844 845 846 847 847 847 848 849
810 813 816 818 820 822 824 825 827 828 829 830 830 831 831 832 833 835 836 837 838 838 839 840 841 842 842 843 843 843 843 843 844 845 845 846 846 848 849 850 850 850 851
811 815 817 819 823 824 826 828 829 830 831 832 833 833 834 835 836 837 838 839 840 841 842 842 843 843 844 844 844 843 843 844 845 847 848 849 850 851 852 853 853 853 854
812 816 819 821 824 826 827 829 831 832 834 834 835 837 837 838 838 839 841 841 842 843 844 844 844 844 845 845 846 846 845 847 847 848 850 851 852 853 854 855 856 856 856
813 816 819 823 825 828 829 831 833 834 835 837 837 839 839 840 841 842 843 843 843 844 845 845 846 847 848 848 848 849 848 849 850 850 851 853 854 855 857 858 858 859 859
815 818 820 824 826 829 830 832 834 836 837 838 839 840 841 842 843 845 844 844 845 846 846 847 847 848 849 850 850 851 851 851 852 852 853 854 856 858 859 860 860 861 862
816 819 821 824 827 829 832 833 836 837 838 839 841 841 843 843 845 847 846 845 846 847 847 849 850 850 851 852 852 853 854 854 855 855 857 858 859 860 862 862 863 864 864
818 820 822 824 827 829 832 835 836 838 839 841 842 843 844 845 846 847 847 847 848 848 849 851 853 853 853 854 854 855 855 856 857 859 860 861 862 863 864 864 865 866 867
817 821 822 824 827 830 832 834 837 839 841 842 843 845 846 847 848 848 849 849 849 850 851 852 853 853 855 855 856 856 856 857 859 860 861 863 864 866 866 866 866 867 868
815 820 822 824 828 830 832 834 837 839 841 843 845 846 847 848 848 849 849 850 850 851 851 853 854 854 855 856 856 856 857 859 859 861 862 864 866 867 868 868 868 869 870
814 818 821 824 827 830 832 834 837 839 842 843 845 846 847 848 849 850 850 851 851 851 852 853 855 856 855 856 857 857 857 859 860 863 864 866 868 868 868 868 869 869 870
812 816 819 823 826 829 831 835 837 839 842 844 845 846 847 849 850 850 850 851 851 851 853 854 856 857 856 855 856 857 858 860 861 863 864 866 868 869 870 870 870 870 870
810 814 817 821 825 829 831 834 837 839 842 844 846 847 848 849 850 850 851 851 851 852 854 855 856 856 856 856 856 857 859 861 862 864 865 867 868 870 871 872 871 872 873
806 811 815 819 824 827 830 833 837 839 841 843 844 847 848 849 850 850 851 851 852 853 854 856 857 857 857 857 858 859 860 862 864 864 866 868 869 870 871 872 871 872 874
803 808 813 817 821 825 829 833 836 838 840 841 843 846 848 848 849 850 852 852 853 853 854 855 857 858 860 859 860 861 863 864 865 866 867 868 869 870 871 871 871 872 873
800 804 810 815 819 823 828 832 835 837 838 839 842 845 847 848 849 851 851 853 854 854 855 856 857 857 858 859 860 862 864 865 866 867 868 869 870 871 871 871 872 873 873
798 802 808 813 817 821 826 830 834 836 837 839 840 843 846 847 849 850 851 853 855 855 856 857 857 857 858 860 861 863 865 867 867 868 870 871 872 872 872 872 872 872 874
796 800 804 810 814 819 823 827 831 833 836 837 839 841 845 847 848 850 851 853 854 855 856 857 858 858 858 861 863 864 866 867 869 870 871 872 872 873 873 873 873 873 873
789 795 800 805 810 815 819 823 827 830 833 836 838 840 843 846 847 849 851 853 854 855 855 856 858 858 859 861 863 865 869 870 868 869 871 872 873 873 873 873 873 873 873
782 788 793 799 804 810 815 821 825 828 831 834 836 838 841 844 846 848 849 851 853 853 854 856 858 858 859 861 862 864 871 872 869 869 870 872 873 873 874 874 874 873 874
774 781 788 795 800 806 811 816 820 823 825 828 832 836 839 842 844 846 848 850 851 853 853 856 857 859 860 861 863 864 864 864 869 873 870 871 872 872 873 874 874 874 874
771 775 782 789 795 801 805 811 815 819 822 826 830 834 837 840 842 844 846 848 850 851 854 855 857 859 860 861 862 863 863 865 866 868 872 869 870 870 871 872 873 873 873
764 770 776 782 788 795 800 806 810 814 817 822 826 830 834 836 838 840 843 846 848 850 852 854 856 858 859 860 861 861 862 864 864 865 868 867 867 867 868 870 870 871 872
Wind_Speed
17 23 21 21 22 21 22 23 23 23 22 22 22 21 20 20 21 20 19 17 16 15 12 12 12 12 12 12 12 13 13 13 14 14 13 14 15 15 15 16 16 17 17
24 24 21 21 21 22 23 22 23 21 22 22 21 19 20 20 20 19 18 16 15 14 13 12 12 12 12 12 13 14 15 15 14 13 12 11 13 15 14 15 15 16 16
28 25 23 22 21 21 22 21 21 20 20 21 19 18 18 19 19 18 16 15 14 13 13 13 13 12 12 12 14 15 16 15 15 14 14 14 12 14 15 15 15 16 15
31 26 24 23 21 21 21 21 20 18 20 19 19 18 18 17 17 16 15 14 12 11 11 12 13 12 13 14 14 15 15 16 15 15 16 16 16 15 15 15 15 15 15
30 27 24 23 21 20 19 19 18 18 17 18 18 18 16 17 16 15 15 13 11 9 9 11 11 11 11 14 15 14 11 11 12 13 15 17 17 15 15 15 15 15 14
30 27 24 22 20 20 18 18 17 17 17 18 16 17 16 16 16 15 14 14 12 10 9 9 10 10 12 13 13 12 13 14 14 13 16 16 18 15 14 13 14 14 14
29 27 24 22 20 19 17 17 16 16 16 16 16 15 16 15 15 15 15 14 12 11 10 10 11 11 12 12 13 12 13 15 14 15 15 16 15 14 13 13 13 14 13
30 27 25 21 20 18 16 16 16 16 15 15 16 15 14 13 13 14 14 13 12 12 12 13 13 11 13 12 11 11 11 13 13 16 15 15 13 12 13 12 12 13 13
29 27 25 21 18 17 15 15 15 15 14 14 14 15 13 13 12 12 12 11 11 11 11 13 13 13 12 9 9 10 12 11 14 16 15 15 14 13 12 12 12 12 12
28 27 25 22 20 19 16 14 14 14 14 13 13 14 12 12 10 12 12 11 10 10 10 11 13 10 11 9 9 11 11 10 13 14 15 14 14 12 12 11 11 12 11
26 27 25 23 21 19 17 14 13 14 13 13 12 12 13 12 12 10 9 10 9 8 8 8 11 9 10 11 9 9 9 9 11 12 13 13 12 12 12 11 11 10 10
22 27 25 23 21 19 17 15 15 14 14 13 13 12 11 10 9 9 8 7 7 7 8 7 7 8 9 11 10 7 6 8 9 11 13 13 12 11 11 11 10 10 11
25 27 27 24 22 20 19 17 16 15 14 12 11 10 10 9 8 7 7 7 5 5 5 6 7 6 7 10 10 9 6 8 10 11 13 12 10 11 11 11 10 10 9
28 30 28 25 23 20 18 18 17 16 14 12 11 12 12 10 8 6 6 6 4 4 5 5 7 6 5 9 10 10 9 8 9 11 12 12 11 10 11 11 11 9 9
27 30 30 27 24 22 20 19 18 17 14 12 11 10 12 10 9 7 6 5 4 3 4 4 6 6 5 4 9 14 9 9 8 10 12 11 11 10 9 9 9 9 8
29 32 31 29 26 23 22 21 20 18 15 13 11 9 9 10 9 6 6 4 5 3 4 3 5 6 8 4 10 11 11 10 8 9 11 12 10 9 9 8 8 7 6
32 34 33 30 27 26 24 22 20 17 15 13 12 11 11 12 10 7 6 6 6 4 2 3 3 8 6 9 11 11 11 10 9 10 10 10 10 8 8 7 7 6 5
33 34 35 32 30 28 25 22 20 17 17 18 17 15 14 13 11 9 6 6 6 4 2 3 2 4 10 9 7 10 11 10 10 9 8 8 8 9 8 9 7 6 6
34 36 37 35 33 32 27 23 19 17 16 16 20 20 17 14 10 8 7 8 6 3 2 3 2 2 3 3 6 12 11 11 9 8 7 6 6 6 7 5 5 4 5
35 37 38 37 34 33 29 24 20 18 12 15 18 21 19 16 14 10 6 6 7 5 5 5 4 5 7 4 7 9 12 10 11 6 8 6 5 4 5 5 6 5 3
34 36 38 39 37 36 34 29 27 23 17 13 15 20 20 18 16 12 8 10 8 6 4 6 4 5 5 8 12 5 4 5 12 11 9 7 5 5 5 5 3 3 3
35 38 39 42 42 40 38 36 33 29 22 16 13 17 21 19 17 14 11 11 10 8 7 8 6 6 4 7 6 5 2 1 4 14 9 10 9 7 7 4 4 3 3
35 39 39 43 43 45 42 38 30 28 25 20 17 16 19 20 18 16 13 13 12 11 8 8 8 8 6 6 8 5 2 2 1 5 11 12 12 11 10 7 6 4 5
33 39 42 42 41 45 43 40 35 30 26 30 25 19 17 19 22 20 16 14 13 12 11 9 9 8 7 10 7 4 3 6 3 1 5 11 15 15 14 12 9 7 7
34 36 42 43 41 40 45 40 41 32 32 27 30 23 19 20 23 23 19 15 16 13 12 10 10 11 9 12 8 7 4 6 5 3 3 5 14 18 16 16 15 12 10
36 35 37 40 42 42 44 44 41 37 35 32 28 27 23 23 25 26 23 20 17 16 14 14 11 13 10 10 12 10 9 6 7 4 2 5 9 12 18 17 18 17 15
Wind_Direction
146 141 135 127 127 122 118 116 116 116 117 119 121 124 128 129 131 130 131 128 126 125 118 110 101 105 108 108 106 105 108 109 109 108 108 113 113 104 102 102 102 100 95
147 139 137 132 129 124 119 116 116 113 114 114 116 123 125 127 128 128 126 126 125 123 114 107 98 101 106 112 114 112 112 112 109 107 110 117 118 107 105 106 104 99 98
145 143 140 137 131 124 117 118 116 114 115 114 114 118 121 123 123 123 124 124 125 122 117 111 106 107 110 115 117 116 117 113 113 111 115 119 122 114 113 108 106 105 105
146 144 142 137 132 126 123 122 118 114 115 116 116 118 117 119 116 118 122 123 123 124 119 115 109 110 117 116 118 119 120 111 115 118 115 116 118 118 114 116 112 111 107
148 147 144 140 134 130 127 124 118 117 118 115 118 114 113 114 116 118 120 120 116 111 102 103 109 113 112 113 113 116 116 130 123 118 121 123 123 120 119 117 115 114 114
151 148 148 141 137 134 132 126 123 122 123 119 116 116 114 116 117 117 117 114 111 110 103 101 103 117 117 114 115 108 116 131 140 128 125 121 120 124 121 119 118 117 119
150 150 148 144 142 138 138 135 131 128 125 121 113 115 114 115 118 118 113 109 108 106 105 102 102 125 119 115 116 113 107 132 130 133 129 126 124 123 122 125 121 119 119
150 151 151 150 146 145 139 139 136 134 130 124 120 114 117 118 119 114 111 111 108 102 94 92 94 116 121 122 116 122 131 136 134 134 134 135 134 130 124 126 125 121 119
153 153 154 153 151 151 146 143 139 136 130 126 126 126 123 122 119 116 114 113 110 101 93 93 100 112 124 121 123 118 140 136 139 139 140 134 129 126 130 128 125 124 121
158 161 158 158 160 158 153 147 144 138 135 135 131 132 129 130 124 120 121 118 112 102 98 95 91 114 131 121 114 124 137 139 145 141 140 135 130 133 132 134 128 125 125
163 164 164 166 167 162 155 151 150 145 143 138 137 141 142 142 138 134 125 118 112 105 87 87 103 106 120 127 125 122 152 146 151 143 140 139 138 135 134 135 132 125 122
166 171 172 173 170 166 162 163 158 154 153 149 145 139 143 145 145 147 141 130 117 105 99 88 86 125 140 146 149 162 176 184 166 158 147 147 146 137 136 135 135 132 132
170 173 180 179 175 173 171 171 164 164 166 167 171 172 162 162 155 157 157 151 133 104 102 93 99 104 158 173 171 168 163 167 176 169 157 153 152 145 141 138 136 134 137
173 179 184 185 181 181 180 178 169 173 175 177 173 167 167 175 166 164 171 158 141 112 102 104 112 111 118 187 184 192 200 190 183 176 167 163 160 157 153 153 148 146 146
177 184 189 189 188 185 189 186 182 182 177 172 170 182 194 180 170 171 179 174 160 132 115 106 114 97 114 155 190 198 199 195 184 181 171 167 169 167 159 158 159 163 164
181 188 190 193 193 189 193 192 190 188 187 195 194 178 158 171 180 181 174 152 135 135 152 100 76 107 127 141 160 179 184 186 187 178 174 177 177 175 176 167 176 173 175
186 191 191 194 196 196 196 197 197 198 202 209 207 197 186 170 177 177 171 131 128 127 123 94 98 115 132 166 156 164 172 175 178 172 165 184 179 189 189 185 194 192 193
188 191 193 194 197 198 199 199 204 208 219 229 221 207 199 185 181 184 171 167 149 123 103 77 85 137 138 140 153 168 177 182 177 168 163 179 185 193 204 207 212 204 214
190 193 194 196 199 200 203 209 214 223 235 220 222 210 205 189 185 183 173 174 179 173 183 225 253 200 162 156 157 185 187 180 173 165 162 174 178 189 207 197 216 230 230
194 199 198 200 203 203 205 209 205 198 198 211 214 206 203 197 191 190 186 177 180 180 206 193 205 192 223 147 154 170 198 200 197 185 171 175 168 171 180 194 192 210 228
197 199 199 201 206 208 210 206 200 199 195 184 204 210 206 203 198 192 190 188 190 203 182 180 190 167 151 171 146 130 161 223 226 223 196 193 194 194 198 202 208 201 194
194 199 201 204 208 211 210 207 210 209 206 199 191 204 209 208 212 211 207 198 197 190 192 197 202 180 143 154 158 137 46 346 242 222 226 214 220 215 217 208 214 214 221
192 198 201 204 207 211 211 211 215 217 215 208 203 202 210 215 218 216 217 215 213 211 211 210 204 197 178 163 158 140 99 210 353 219 232 230 227 233 232 227 219 221 225
198 199 203 206 204 208 208 210 211 213 212 219 217 212 211 217 217 219 223 219 210 210 221 224 222 215 197 167 150 167 167 153 150 7 253 233 230 233 235 234 230 227 229
198 195 201 203 204 204 208 208 214 214 220 222 223 221 219 217 217 221 224 223 221 219 224 236 226 211 209 196 186 174 173 185 153 130 230 236 228 231 235 239 237 233 231
198 194 196 196 202 203 208 210 214 215 218 218 223 220 221 220 219 221 225 227 228 229 230 228 227 215 217 219 224 214 208 184 196 168 155 220 230 233 235 240 235 232 238